Location: Honolulu
(21.2943°N, 157.8344°W)
Time: 01:01:00
(UTC-10:00)

ISS - Visible Passes

Search period start: 18 February 2018 00:00
Search period end: 28 February 2018 00:00
Orbit: 403 x 407 km, 51.6° (Epoch: 19 February)

Date Brightness Start Highest point End Pass type
(mag) Time Alt. Az. Time Alt. Az. Time Alt. Az.
20 Feb -0.2 06:32:53 10° SE 06:33:47 11° SE 06:34:41 10° ESE visible
22 Feb -2.1 06:22:33 10° SSW 06:25:36 36° SE 06:28:37 10° ENE visible
23 Feb -0.8 05:31:32 10° SSE 05:33:29 15° SE 05:35:25 10° E visible
24 Feb -3.7 06:14:16 10° SW 06:17:27 54° NW 06:20:40 10° NNE visible
25 Feb -3.2 05:25:04 51° SE 05:25:14 52° SE 05:28:25 10° NE visible
26 Feb -2.1 06:08:43 16° WNW 06:09:25 17° NW 06:11:39 10° N visible
27 Feb -1.4 05:19:20 16° NNE 05:19:20 16° NNE 05:20:08 10° NNE visible
